TimeMST,TemperatureF,Dew PointF,Humidity,Sea Level PressureIn,VisibilityMPH,Wind Direction,Wind SpeedMPH,Gust SpeedMPH,PrecipitationIn,Events,Conditions,WindDirDegrees,DateUTC
12:20 AM,6.8,3.2,85,30.09,1.5,Calm,Calm,-,N/A,,Partly Cloudy,0,2013-01-07 07:20:00
12:30 AM,6.8,1.4,79,30.09,3.0,Calm,Calm,-,N/A,,Haze,0,2013-01-07 07:30:00
12:36 AM,6.8,1.4,79,30.09,2.5,South,3.5,-,N/A,,Haze,170,2013-01-07 07:36:00
12:43 AM,8.6,3.2,79,30.08,1.2,South,3.5,-,N/A,,Mostly Cloudy,170,2013-01-07 07:43:00
12:47 AM,6.8,3.2,85,30.08,2.0,Calm,Calm,-,N/A,,Scattered Clouds,0,2013-01-07 07:47:00
12:55 AM,8.1,3.0,80,30.26,6.0,South,4.6,-,N/A,,Haze,170,2013-01-07 07:55:00
1:55 AM,7.0,3.0,84,30.26,6.0,NNW,3.5,-,N/A,,Scattered Clouds,330,2013-01-07 08:55:00
2:55 AM,6.1,3.0,87,30.25,8.0,SSW,3.5,-,N/A,,Partly Cloudy,200,2013-01-07 09:55:00
3:35 AM,3.2,-0.4,85,30.07,8.0,Calm,Calm,-,N/A,,Mostly Cloudy,0,2013-01-07 10:35:00
3:46 AM,3.2,-0.4,85,30.07,6.0,Calm,Calm,-,N/A,,Scattered Clouds,0,2013-01-07 10:46:00
3:55 AM,3.0,-0.9,84,30.27,8.0,Calm,Calm,-,N/A,,Scattered Clouds,0,2013-01-07 10:55:00
4:38 AM,6.8,1.4,79,30.07,10.0,Calm,Calm,-,N/A,,Mostly Cloudy,0,2013-01-07 11:38:00
5:03 AM,5.0,-0.4,78,30.05,10.0,Calm,Calm,-,N/A,,Scattered Clouds,0,2013-01-07 12:03:00
5:20 AM,3.2,-0.4,85,30.05,5.0,Calm,Calm,-,N/A,,Haze,0,2013-01-07 12:20:00
5:34 AM,3.2,1.4,92,30.04,3.0,West,3.5,-,N/A,,Overcast,260,2013-01-07 12:34:00
5:38 AM,3.2,-0.4,85,30.04,1.8,West,4.6,-,N/A,,Overcast,270,2013-01-07 12:38:00
5:42 AM,5.0,1.4,85,30.05,0.8,West,5.8,-,N/A,,Mist,270,2013-01-07 12:42:00
5:52 AM,5.0,1.4,85,30.04,2.0,WSW,4.6,-,N/A,,Mostly Cloudy,240,2013-01-07 12:52:00
5:55 AM,5.0,1.0,84,30.23,7.0,WSW,3.5,-,N/A,,Mostly Cloudy,240,2013-01-07 12:55:00
6:55 AM,3.0,-0.9,84,30.25,9.0,Calm,Calm,-,N/A,,Overcast,0,2013-01-07 13:55:00
7:55 AM,7.0,3.0,84,30.25,10.0,Calm,Calm,-,N/A,,Overcast,0,2013-01-07 14:55:00
8:55 AM,9.0,5.0,84,30.27,6.0,Calm,Calm,-,N/A,,Overcast,0,2013-01-07 15:55:00
9:55 AM,10.9,7.0,84,30.27,8.0,Calm,Calm,-,N/A,,Overcast,0,2013-01-07 16:55:00
10:55 AM,12.9,10.9,92,30.25,10.0,Calm,Calm,-,N/A,,Overcast,0,2013-01-07 17:55:00
12:55 PM,17.1,12.0,81,30.18,10.0,SE,3.5,-,N/A,,Overcast,130,2013-01-07 19:55:00
1:55 PM,18.0,12.9,81,30.17,10.0,Calm,Calm,-,N/A,,Overcast,0,2013-01-07 20:55:00
2:55 PM,19.9,15.1,81,30.16,10.0,Calm,Calm,-,0.00,,Overcast,0,2013-01-07 21:55:00
4:55 PM,21.0,15.1,78,30.15,10.0,Calm,Calm,-,N/A,,Overcast,0,2013-01-07 23:55:00
5:55 PM,19.9,15.1,81,30.17,10.0,Calm,Calm,-,N/A,,Overcast,0,2013-01-08 00:55:00
6:55 PM,16.0,12.9,88,30.19,10.0,Calm,Calm,-,N/A,,Partly Cloudy,0,2013-01-08 01:55:00
7:55 PM,15.1,10.9,84,30.18,10.0,Calm,Calm,-,N/A,,Clear,0,2013-01-08 02:55:00
8:55 PM,12.0,8.1,84,30.18,10.0,Calm,Calm,-,N/A,,Clear,0,2013-01-08 03:55:00
9:55 PM,12.0,8.1,84,30.17,10.0,Calm,Calm,-,N/A,,Clear,0,2013-01-08 04:55:00
10:55 PM,12.0,8.1,84,30.18,10.0,WSW,4.6,-,N/A,,Clear,240,2013-01-08 05:55:00
11:55 PM,14.0,10.0,84,30.16,10.0,Calm,Calm,-,N/A,,Mostly Cloudy,0,2013-01-08 06:55:00